Weather History for KCTB - March, 2012

Change the Weather History Date:

Monday, March 19, 2012

  Actual Average Record
Temperature  
Mean Temperature 31 °F 32 °F  
Max Temperature 37 °F 44 °F 71 °F (1928)
Min Temperature 25 °F 21 °F -14 °F (1913)
Degree Days  
Heating Degree Days 34 33  
Month to date heating degree days 550 676  
Since 1 July heating degree days 6034 6736  
Cooling Degree Days 0 0  
Month to date cooling degree days 0 0  
Year to date cooling degree days 0 0  
Moisture  
Dew Point 25 °F    
Average Humidity 80    
Maximum Humidity 100    
Minimum Humidity 59    
Precipitation  
Precipitation T in 0.01 in 0.59 in (1987)
Month to date precipitation 0.01 0.27  
Year to date precipitation 0.53 0.68  
Snow  
Snow 0.00 in - - ()
Snow Depth 2.00 in    
Sea Level Pressure  
Sea Level Pressure 29.54 in    
Wind  
Wind Speed 21 mph (NW)    
Max Wind Speed 32 mph    
Max Gust Speed 39 mph    
Visibility 5 miles    
Events Fog , Snow    
T = Trace of Precipitation, MM = Missing Value Source: NWS Daily Summary

Daily Weather History Graph

Daily Weather History Graph

Search for Another Location

Airport or City:

Trip Planner

Search our weather history database for the weather conditions in past years. The results will help you decide how hot, cold, wet, or windy it might be!

Date:

Astronomy

Mar. 19, 2012 Rise Set
Actual Time 7:33 AM MDT 7:41 PM MDT
Civil Twilight 7:01 AM MDT 8:13 PM MDT
Nautical Twilight 6:25 AM MDT 8:50 PM MDT
Astronomical Twilight 5:47 AM MDT 9:28 PM MDT
Moon 5:58 AM MDT (3/19) 5:04 PM MDT (3/19)
Length of Visible Light 13h 11m
Length of Day
12h 08m
Waning Crescent, 8% of the Moon is Illuminated
Mar 19
Waning Crescent
Mar 22
New
Mar 30
First Quarter
Apr 6
Full
Apr 13
Last Quarter

Hourly Weather History & Observations

Time (MDT) Temp. Windchill Dew Point Humidity Pressure Visibility Wind Dir Wind Speed Gust Speed Precip Events Conditions
12:12 AM 28.4 °F 17.0 °F 28.4 °F 100% 29.50 in 3.0 mi North 15.0 mph - N/A   Overcast
12:23 AM 28.4 °F 15.8 °F 28.4 °F 100% 29.49 in 1.8 mi North 18.4 mph 23.0 mph N/A   Overcast
12:50 AM 28.4 °F 16.2 °F 28.4 °F 100% 29.48 in 3.0 mi NNW 17.3 mph - N/A   Overcast
12:51 AM 28.4 °F 15.8 °F 28.4 °F 100% 29.48 in 3.0 mi North 18.4 mph - N/A   Overcast
1:48 AM 28.4 °F 16.2 °F 26.6 °F 93% 29.48 in 6.0 mi NNW 17.3 mph - N/A   Overcast
1:56 AM 28.9 °F 17.7 °F 27.0 °F 92% 29.55 in 9.0 mi NNW 15.0 mph - N/A   Overcast
2:21 AM 28.4 °F 15.8 °F 26.6 °F 93% 29.48 in 10.0 mi NNW 18.4 mph 24.2 mph N/A   Overcast
2:56 AM 28.4 °F 16.2 °F 26.6 °F 93% 29.47 in 3.0 mi NNW 17.3 mph 25.3 mph N/A Snow Light Snow
3:05 AM 28.4 °F 15.1 °F 26.6 °F 93% 29.47 in 2.5 mi NNW 20.7 mph 24.2 mph 0.00 in Snow Light Snow
3:18 AM 28.4 °F 14.7 °F 26.6 °F 93% 29.47 in 1.5 mi NNW 21.9 mph 26.5 mph 0.00 in Snow Light Snow
3:25 AM 28.4 °F 16.2 °F 26.6 °F 93% 29.47 in 1.2 mi NNW 17.3 mph - 0.00 in Snow Light Snow
3:51 AM 28.4 °F 15.8 °F 26.6 °F 93% 29.47 in 3.0 mi NNW 18.4 mph - 0.00 in Snow Light Snow
3:52 AM 28.0 °F 14.9 °F 26.1 °F 92% 29.55 in 3.0 mi NNW 19.6 mph 26.5 mph 0.00 in Snow Light Snow
4:28 AM 28.4 °F 15.8 °F 26.6 °F 93% 29.47 in 5.0 mi NNW 18.4 mph 25.3 mph 0.00 in Snow Light Snow
4:47 AM 28.4 °F 16.2 °F 26.6 °F 93% 29.47 in 2.0 mi NNW 17.3 mph - 0.00 in Snow Light Snow
4:56 AM 28.0 °F 14.9 °F 27.0 °F 96% 29.56 in 1.8 mi NNW 19.6 mph - 0.00 in Snow Light Snow
5:09 AM 28.4 °F 16.2 °F 26.6 °F 93% 29.48 in 1.5 mi NW 17.3 mph - 0.00 in Snow Light Snow
5:56 AM 28.4 °F 15.4 °F 26.6 °F 93% 29.49 in 1.5 mi NW 19.6 mph 27.6 mph N/A Snow Light Snow
6:56 AM 28.0 °F 13.6 °F 25.0 °F 88% 29.55 in 1.8 mi NW 24.2 mph 31.1 mph 0.00 in Snow Light Snow
7:45 AM 28.4 °F 14.4 °F 24.8 °F 86% 29.48 in 3.0 mi NW 23.0 mph 29.9 mph 0.00 in Snow Light Snow
7:54 AM 28.4 °F 15.1 °F 24.8 °F 86% 29.49 in 2.0 mi NW 20.7 mph 28.8 mph 0.00 in Snow Light Snow
7:56 AM 28.0 °F 14.3 °F 25.0 °F 88% 29.58 in 1.8 mi NW 21.9 mph 28.8 mph 0.00 in Snow Light Snow
8:00 AM 28.4 °F 15.1 °F 24.8 °F 86% 29.49 in 1.5 mi NW 20.7 mph - 0.00 in Snow Light Snow
8:34 AM 28.4 °F 14.4 °F 24.8 °F 86% 29.51 in 0.8 mi NW 23.0 mph 28.8 mph 0.00 in Snow Light Snow
8:49 AM 28.4 °F 14.4 °F 24.8 °F 86% 29.51 in 0.5 mi NW 23.0 mph - 0.00 in Fog , Snow Light Snow
8:56 AM 28.0 °F 13.9 °F 25.0 °F 88% 29.60 in 0.5 mi NW 23.0 mph 28.8 mph 0.00 in Fog , Snow Light Snow
9:33 AM 28.4 °F 14.7 °F 24.8 °F 86% 29.50 in 1.0 mi NW 21.9 mph 28.8 mph 0.00 in Snow Light Snow
9:56 AM 28.0 °F 14.3 °F 25.0 °F 88% 29.59 in 1.8 mi NW 21.9 mph 28.8 mph 0.00 in Snow Light Snow
10:25 AM 28.4 °F 14.7 °F 24.8 °F 86% 29.50 in 1.8 mi NW 21.9 mph 31.1 mph 0.00 in Snow Light Snow
10:33 AM 28.4 °F 14.7 °F 24.8 °F 86% 29.50 in 2.5 mi WNW 21.9 mph 29.9 mph 0.00 in Snow Light Snow
10:46 AM 28.4 °F 13.8 °F 24.8 °F 86% 29.50 in 3.0 mi NW 25.3 mph 31.1 mph 0.00 in Snow Light Snow
10:56 AM 28.9 °F 14.5 °F 25.0 °F 85% 29.59 in 4.0 mi NW 25.3 mph 32.2 mph 0.00 in Snow Light Snow
11:56 AM 30.0 °F 16.0 °F 25.0 °F 82% 29.57 in 9.0 mi NW 25.3 mph 33.4 mph 0.00 in   Overcast
12:56 PM 32.0 °F 18.4 °F 23.0 °F 69% 29.56 in 10.0 mi NNW 26.5 mph 34.5 mph N/A   Overcast
1:56 PM 33.1 °F 20.1 °F 21.0 °F 61% 29.56 in 10.0 mi NNW 25.3 mph 33.4 mph N/A   Clear
2:56 PM 34.0 °F 22.1 °F 21.0 °F 59% 29.55 in 10.0 mi NNW 21.9 mph 28.8 mph N/A   Overcast
3:56 PM 36.0 °F 26.0 °F 24.1 °F 62% 29.56 in 10.0 mi NNW 17.3 mph - N/A   Overcast
4:56 PM 35.1 °F 26.4 °F 23.0 °F 61% 29.57 in 10.0 mi NW 12.7 mph - N/A   Partly Cloudy
5:56 PM 35.1 °F 23.5 °F 24.1 °F 64% 29.58 in 10.0 mi West 21.9 mph 31.1 mph N/A   Clear
6:56 PM 34.0 °F 22.7 °F 21.9 °F 61% 29.61 in 10.0 mi West 19.6 mph 28.8 mph N/A   Clear
7:56 PM 30.0 °F 16.9 °F 19.0 °F 64% 29.64 in 10.0 mi West 21.9 mph 27.6 mph N/A   Clear
8:56 PM 28.0 °F 14.6 °F 19.0 °F 69% 29.66 in 10.0 mi West 20.7 mph - N/A   Clear
9:56 PM 27.0 °F 13.9 °F 19.0 °F 72% 29.68 in 10.0 mi West 18.4 mph 28.8 mph N/A   Clear
10:56 PM 27.0 °F 10.5 °F 17.1 °F 66% 29.68 in 10.0 mi West 31.1 mph 39.1 mph N/A   Clear
11:56 PM 25.0 °F 10.6 °F 16.0 °F 69% 29.69 in 10.0 mi West 20.7 mph - N/A   Clear